Regional Weather Roundup
Issued by NWS Austin/San Antonio, TX

Home | Current Version | Previous Version | Text Only | Print | Product List | Glossary On
Versions: 1 2 3 4 5 6 7 8 9 10 11 12 13 14 15 16 17 18 19 20 21 22 23 24 25 26 27 28 29 30 31 32 33 34 35 36 37 38 39 40 41 42 43 44 45 46 47 48 49 50
000
ASUS44 KEWX 231401
RWREWX
SOUTH TEXAS REGIONAL WEATHER ROUNDUP
NATIONAL WEATHER SERVICE AUSTIN/SAN ANTONIO TX
900 AM CDT SUN JUL 23 2017

NOTE: "FAIR" INDICATED FEW OR NO CLOUDS BELOW 12,000 FEET WITH NO
SIGNIFICANT WEATHER AND/OR OBSTRUCTIONS TO VISIBILITY.

* - THESE STATIONS ARE NOT NWS OR FAA STATIONS...AND ARE NOT SUBJECT
    TO NWS AND FAA QUALITY CONTROL.

TXZ171-172-183>190-231500-
TEXAS HILL COUNTRY AND EDWARDS PLATEAU

CITY           SKY/WX    TMP DP  RH WIND       PRES   REMARKS
JUNCTION       SUNNY     80  70  71 SW6       29.99R
*LLANO         SUNNY     82  72  69 CALM      29.98S
BURNET         SUNNY     81  71  71 SW7       29.99R
*HORSESHOE BAY SUNNY     83  71  67 S6        29.96S
*KERRVILLE     PTSUNNY   76  73  88 S8        29.99R
*FREDERICKSBRG SUNNY     79  68  69 SW8       29.99R
*ROCKSPRINGS   SUNNY     79  73  83 S10       30.04R
*BOERNE STAGE  MOSUNNY   77  70  78 S12       30.00R
*CASTROVILLE   MOSUNNY   81  71  71 S7        29.98R
HONDO          MOSUNNY   81  73  76 SE8       29.97R
*UVALDE        SUNNY     79  71  78 E8        29.96S
DEL RIO        SUNNY     82  69  64 SE9       29.93R
LAUGHLIN AFB   MOSUNNY   82  69  65 SE10      29.94R
CARRIZO SPRGS  SUNNY     81  70  69 SE6       29.92R
*EAGLE PASS    NOT AVBL
$$

TXZ173-191>194-202-209-217>225-228-231500-
CENTRAL AND SOUTH CENTRAL TEXAS

CITY           SKY/WX    TMP DP  RH WIND       PRES   REMARKS
GEORGETOWN     MOSUNNY   81  73  78 S8G17     29.95S
AUSTIN/BERGSTM MOSUNNY   83  74  74 S12       29.94R
AUSTIN/MABRY   MOSUNNY   82  73  74 VRB7      29.96R
*AUSTIN/EXEC     N/A     81  75  83 SW14      29.95S
*LAGO VISTA    MOSUNNY   80  73  78 S7        29.98R
SAN MARCOS     MOSUNNY   81  66  61 SW13G18   29.97R
NEW BRAUNFELS  MOSUNNY   81  74  79 S13       29.94S
RANDOLPH AFB   MOSUNNY   81  76  83 S8        29.96R
PT SAN ANTONIO MOSUNNY   81  73  76 S8        29.95R
SAN ANTONIO    MOSUNNY   81  72  74 S10       29.97R
STINSON FIELD  MOSUNNY   82  73  74 S9        29.94R
*LA GRANGE     MOSUNNY   83  78  86 S7        29.93S HX  92
*GIDDINGS      MOSUNNY   80  74  80 SW12G20   29.96R
*GONZALES      SUNNY     80  79  98 S6        29.95R
$$

TXZ163>164-176>182-195>201-210>213-226-227-235-231500-
SOUTHEAST TEXAS

CITY           SKY/WX    TMP DP  RH WIND       PRES   REMARKS
COLLEGE STN    PTSUNNY   82  77  84 S10       29.94S HX  90
*BRYAN         CLOUDY    81  78  90 SW10      29.96R
*CALDWELL      NOT AVBL
*CROCKETT      MOSUNNY   79  75  89 S6        29.98R
*BRENHAM       CLOUDY    84  79  85 SW10      29.96R HX  95
HUNTSVILLE     PTSUNNY   82  75  79 SW10G18   29.96R
CONROE         PTSUNNY   83  77  82 SW10      29.96R HX  92
HOUSTON BUSH   MOSUNNY   84  77  79 SW7       29.95R HX  94
HOUSTON HOBBY  PTSUNNY   86  77  74 S12       29.95R HX  97
*HOUSTON SW AP SUNNY     83  78  84 SW3       29.96S HX  92
PEARLAND       MOSUNNY   87  77  72 VRB5      29.97R HX  99
HOUSTON HOOKS  SUNNY     83  78  85 S8        29.95R HX  93
ELLINGTON FLD  MOSUNNY   86  75  70 SW9       29.97R HX  95
SUGAR LAND     SUNNY     85  78  80 S8        29.95R HX  96
*HOUSTON EXEC  MOSUNNY   84  77  79 SW9       29.96R HX  94
*CLEVELAND MUN SUNNY     83  78  83 SW6       29.97R HX  93
*WHARTON       CLOUDY    86  75  71 S8        29.96R HX  95
*COLUMBUS      FAIR      82  76  83 SW7       29.97R
*EAGLE LAKE    PTSUNNY   84  80  87 SW7       29.95R HX  96
$$

TXZ214>216-236>238-231500-
THE UPPER TEXAS COAST

CITY           SKY/WX    TMP DP  RH WIND       PRES   REMARKS
*ORANGE        CLOUDY    82  79  92 CALM      29.98R HX  91
PORT ARTHUR    CLOUDY    80  78  94 SW3       29.95R
GALVESTON      MOSUNNY   87  78  74 SW13      29.96R HX 100
ANGLETON       SUNNY     87  78  74 SW9       29.95R HX 100
*BAY CITY      CLOUDY    87  78  74 S10G16    29.95R HX  99
PALACIOS       CLOUDY    84  76  76 S16       29.94R HX  93
$$

TXZ229>234-239>247-231500-
TEXAS COASTAL BEND AND RIO GRANDE PLAINS

CITY           SKY/WX    TMP DP  RH WIND       PRES   REMARKS
VICTORIA       CLOUDY    84  77  79 S6        29.95R HX  94
*BEEVILLE      CLOUDY    83  83 100 S16G23    29.94R HX 102
ROCKPORT       CLOUDY    86  75  69 S14       29.92S HX  95
*PORT ARANSAS  CLOUDY    85  74  71 S16G24    29.93R HX  92
*PORT LAVACA   CLOUDY    86  76  71 SW10      29.94R HX  95
*INGLESIDE     CLOUDY    87  76  70 MISG      29.93R HX  97
CORPUS CHRISTI CLOUDY    84  77  79 S20G26    29.92R HX  94
CORPUS NAS     CLOUDY    87  78  74 S20G25    29.93R HX 100
*ROBSTOWN      CLOUDY    87  75  68 S20       29.94R HX  95
ALICE          CLOUDY    82  76  81 S16G23    29.93R
KINGSVILLE NAS PTSUNNY   84  78  82 S20       29.93R HX  95
COTULLA        SUNNY     82  71  69 S10       29.93R
*FAITH RANCH   SUNNY     82  72  69 SE9G16    29.93R
LAREDO         SUNNY     84  71  65 S16         N/A
$$

TXZ248>255-231500-
DEEP SOUTH TEXAS

CITY           SKY/WX    TMP DP  RH WIND       PRES   REMARKS
BROWNSVILLE    MOSUNNY   84  75  74 S17       29.94R HX  92
PORT ISABEL    MOSUNNY   85  76  74 S15       29.93R HX  94
*SOUTH PADRE   NOT AVBL
HARLINGEN      CLOUDY    84  76  76 S17       29.92R HX  93
*HEBBRONVILLE  MOSUNNY   78  72  83 S10G18    29.95S
MCALLEN        PTSUNNY   84  76  76 SE15G25   29.92R HX  93
*WESLACO       CLOUDY    85  75  70 S15       29.92R HX  93
FALFURRIAS     CLOUDY    81  77  87 SE8       29.94R
EDINBURG       CLOUDY    87  74  65 SE16G22   29.93R HX  95
*ZAPATA        MOSUNNY   82  71  68 SE10G17   29.92R
$$

TXZ213>215-236>238-242>244-246-247-251-254-255-231500-
CMAN STATIONS

STATION/POSITION TIME  TEMP    WIND        PRES    WAVE
                       AIR SEA DIR/SP/G            HT/PER
                 (UTC) (F)     (DEG/KT/KT) (MB)    (FT/S)
SABINE PASS      1330   85 88  230/  6/ 12 1015.7
SEA RIM ST PARK  1300   85     220/ 13/ 16 1014.5
NORTH JETTY/GLS  1330      85  210/ 15/ 19 1013.6
EAGLE POINT      1330   84 87  240/  6/  9 1014.4
MORGANS POINT    1330   85 88  220/  6/ 10 1014.1
MISSION/ARANSAS  1300          180/ 13     1013.0
PORT O`CONNOR    1330   84     190/ 16/ 19 1013.0
PORT ARANSAS     1300   84 85  170/ 21/ 23 1013.0
MALAQUITE BEACH  1330   84 85  170/ 21/ 25 1012.5
BAFFIN BAY       1330   83 83              1013.7
PORT ISABEL      1330   83 85              1013.5
$$



USA.gov is the U.S. government's official web portal to all federal, state and local government web resources and services.